START_TIME,STEP,MOV.,P11,t_acc.,P23,t_acc.,P27,t_acc.,A4,t_acc.
1979-07-30 06:00:22.160 ,0,1,1.,4.8,0.,4.8,0.,4.8,0.,4.8
1979-07-30 06:00:26.960 ,0,1,3.,4.8,0.,4.8,0.,4.8,0.,4.8
1979-07-30 06:00:31.760 ,0,1,1.,4.8,0.,4.8,0.,4.8,0.,4.8
1979-07-30 06:00:36.560 ,0,1,6.,4.8,0.,4.8,0.,4.8,0.,4.8
1979-07-30 06:00:41.360 ,0,1,6.,4.8,0.,4.8,0.,4.8,0.,4.8
1979-07-30 06:00:46.160 ,4,1,3.,4.8,0.,4.8,0.,4.8,0.,4.8
1979-07-30 06:00:50.960 ,4,1,2.,4.8,0.,4.8,1.,4.8,0.,4.8
1979-07-30 06:00:55.760 ,4,1,3.,4.8,0.,4.8,0.,4.8,0.,4.8
1979-07-30 06:01:00.560 ,4,1,1.,4.8,0.,4.8,0.,4.8,0.,4.8
1979-07-30 06:01:05.360 ,4,1,1.,4.8,0.,4.8,0.,4.8,0.,4.8
1979-07-30 06:01:10.160 ,7,1,1.,4.8,0.,4.8,1.,4.8,0.,4.8
1979-07-30 06:01:14.960 ,7,1,1.,4.8,0.,4.8,0.,4.8,0.,4.8
1979-07-30 06:01:19.760 ,7,1,2.,4.8,0.,4.8,0.,4.8,0.,4.8
1979-07-30 06:01:24.560 ,7,1,2.,4.8,0.,4.8,1.,4.8,0.,4.8
1979-07-30 06:01:29.360 ,7,1,3.,4.8,0.,4.8,0.,4.8,0.,4.8
1979-07-30 06:01:34.160 ,3,1,2.,4.8,0.,4.8,0.,4.8,0.,4.8
1979-07-30 06:01:38.960 ,3,1,1.,4.8,0.,4.8,0.,4.8,0.,4.8
1979-07-30 06:01:43.760 ,3,1,0.,4.8,0.,4.8,0.,4.8,0.,4.8
1979-07-30 06:01:48.560 ,3,1,4.,4.8,0.,4.8,1.,4.8,0.,4.8
1979-07-30 06:01:53.360 ,3,1,2.,4.8,0.,4.8,1.,4.8,0.,4.8
1979-07-30 06:01:58.160 ,0,1,0.,4.8,0.,4.8,0.,4.8,0.,4.8
1979-07-30 06:02:02.960 ,0,1,3.,4.8,0.,4.8,0.,4.8,0.,4.8
1979-07-30 06:02:07.760 ,0,1,2.,4.8,0.,4.8,0.,4.8,0.,4.8
1979-07-30 06:02:12.560 ,0,1,1.,4.8,0.,4.8,0.,4.8,0.,4.8
1979-07-30 06:02:17.360 ,0,1,5.,4.8,0.,4.8,0.,4.8,0.,4.8
1979-07-30 06:02:22.160 ,4,1,4.,4.8,0.,4.8,0.,4.8,0.,4.8
1979-07-30 06:02:26.960 ,4,1,2.,4.8,0.,4.8,0.,4.8,0.,4.8
1979-07-30 06:02:31.760 ,4,1,3.,4.8,0.,4.8,0.,4.8,0.,4.8
1979-07-30 06:02:36.560 ,4,1,0.,4.8,0.,4.8,0.,4.8,0.,4.8
1979-07-30 06:02:41.360 ,4,1,1.,4.8,0.,4.8,0.,4.8,0.,4.8
1979-07-30 06:02:46.160 ,7,1,1.,4.8,0.,4.8,0.,4.8,0.,4.8
1979-07-30 06:02:50.960 ,7,1,1.,4.8,0.,4.8,0.,4.8,0.,4.8
1979-07-30 06:02:55.760 ,7,1,2.,4.8,0.,4.8,0.,4.8,0.,4.8
1979-07-30 06:03:00.560 ,7,1,1.,4.8,0.,4.8,0.,4.8,0.,4.8
1979-07-30 06:03:05.360 ,7,1,2.,4.8,0.,4.8,0.,4.8,0.,4.8
1979-07-30 06:03:10.160 ,3,1,0.,4.8,0.,4.8,0.,4.8,0.,4.8
1979-07-30 06:03:14.960 ,3,1,0.,4.8,0.,4.8,1.,4.8,0.,4.8
1979-07-30 06:03:19.760 ,3,1,1.,4.8,0.,4.8,0.,4.8,0.,4.8
1979-07-30 06:03:24.560 ,3,1,0.,4.8,0.,4.8,0.,4.8,0.,4.8
1979-07-30 06:03:29.360 ,3,1,1.,4.8,0.,4.8,0.,4.8,0.,4.8
1979-07-30 06:03:34.160 ,0,1,0.,4.8,0.,4.8,0.,4.8,0.,4.8
1979-07-30 06:03:38.960 ,0,1,1.,4.8,0.,4.8,1.,4.8,0.,4.8
1979-07-30 06:03:43.760 ,0,1,1.,4.8,0.,4.8,0.,4.8,0.,4.8
1979-07-30 06:03:48.560 ,0,1,6.,4.8,0.,4.8,0.,4.8,0.,4.8
1979-07-30 06:03:53.360 ,0,1,4.,4.8,0.,4.8,0.,4.8,0.,4.8
1979-07-30 06:03:58.160 ,4,1,3.,4.8,0.,4.8,0.,4.8,0.,4.8
1979-07-30 06:04:02.960 ,4,1,2.,4.8,0.,4.8,1.,4.8,0.,4.8
1979-07-30 06:04:07.760 ,4,1,0.,4.8,0.,4.8,0.,4.8,0.,4.8
1979-07-30 06:04:12.560 ,4,1,4.,4.8,0.,4.8,0.,4.8,0.,4.8
1979-07-30 06:04:17.360 ,4,1,3.,4.8,0.,4.8,0.,4.8,0.,4.8
1979-07-30 06:04:22.160 ,7,1,3.,4.8,0.,4.8,0.,4.8,0.,4.8
1979-07-30 06:04:26.960 ,7,1,0.,4.8,0.,4.8,0.,4.8,0.,4.8
1979-07-30 06:04:31.760 ,7,1,0.,4.8,0.,4.8,0.,4.8,0.,4.8
1979-07-30 06:04:36.560 ,7,1,2.,4.8,0.,4.8,0.,4.8,0.,4.8
1979-07-30 06:04:41.360 ,7,1,1.,4.8,0.,4.8,0.,4.8,0.,4.8
1979-07-30 06:04:46.160 ,3,1,3.,4.8,0.,4.8,0.,4.8,0.,4.8
1979-07-30 06:04:50.960 ,3,1,1.,4.8,0.,4.8,0.,4.8,0.,4.8
1979-07-30 06:04:55.760 ,3,1,3.,4.8,0.,4.8,0.,4.8,0.,4.8
1979-07-30 06:05:00.560 ,3,1,2.,4.8,0.,4.8,0.,4.8,0.,4.8
1979-07-30 06:05:05.360 ,3,1,0.,4.8,0.,4.8,0.,4.8,0.,4.8
1979-07-30 06:05:10.160 ,0,1,0.,4.8,0.,4.8,0.,4.8,0.,4.8
1979-07-30 06:05:14.960 ,0,1,1.,4.8,0.,4.8,0.,4.8,0.,4.8
1979-07-30 06:05:19.760 ,0,1,1.,4.8,0.,4.8,0.,4.8,0.,4.8
1979-07-30 06:05:24.560 ,0,1,0.,4.8,0.,4.8,0.,4.8,0.,4.8
1979-07-30 06:05:29.360 ,0,1,1.,4.8,0.,4.8,0.,4.8,0.,4.8
1979-07-30 06:05:34.160 ,0,0,0.,4.8,0.,4.8,0.,4.8,0.,4.8
1979-07-30 06:05:38.960 ,0,0,0.,4.8,0.,4.8,0.,4.8,0.,4.8
1979-07-30 06:05:43.760 ,0,0,2.,4.8,0.,4.8,0.,4.8,0.,4.8
1979-07-30 06:05:48.560 ,0,0,2.,4.8,0.,4.8,0.,4.8,0.,4.8
1979-07-30 06:05:53.360 ,0,0,1.,4.8,0.,4.8,0.,4.8,0.,4.8
1979-07-30 06:05:58.160 ,0,0,1.,4.8,0.,4.8,0.,4.8,0.,4.8
1979-07-30 06:06:02.960 ,0,0,2.,4.8,0.,4.8,0.,4.8,0.,4.8
1979-07-30 06:06:07.760 ,0,0,1.,4.8,0.,4.8,0.,4.8,0.,4.8
1979-07-30 06:06:12.560 ,0,0,0.,4.8,0.,4.8,0.,4.8,0.,4.8
1979-07-30 06:06:17.360 ,0,0,1.,4.8,0.,4.8,0.,4.8,0.,4.8
1979-07-30 06:06:22.160 ,5,0,3.,4.8,1.,4.8,0.,4.8,0.,4.8
1979-07-30 06:06:26.960 ,5,0,2.,4.8,0.,4.8,0.,4.8,0.,4.8
1979-07-30 06:06:31.760 ,5,0,2.,4.8,0.,4.8,0.,4.8,0.,4.8
1979-07-30 06:06:36.560 ,5,0,2.,4.8,0.,4.8,0.,4.8,0.,4.8
1979-07-30 06:06:41.360 ,5,0,1.,4.8,0.,4.8,0.,4.8,0.,4.8
1979-07-30 06:06:46.160 ,5,0,0.,4.8,0.,4.8,0.,4.8,0.,4.8
1979-07-30 06:06:50.960 ,5,0,1.,4.8,0.,4.8,0.,4.8,0.,4.8
1979-07-30 06:06:55.760 ,5,0,2.,4.8,0.,4.8,0.,4.8,0.,4.8
1979-07-30 06:07:00.560 ,5,0,1.,4.8,0.,4.8,0.,4.8,0.,4.8
1979-07-30 06:07:05.360 ,5,0,4.,4.8,0.,4.8,0.,4.8,0.,4.8
1979-07-30 06:07:10.160 ,4,0,3.,4.8,0.,4.8,0.,4.8,0.,4.8
1979-07-30 06:07:14.960 ,4,0,0.,4.8,0.,4.8,0.,4.8,0.,4.8
1979-07-30 06:07:19.760 ,4,0,2.,4.8,0.,4.8,0.,4.8,0.,4.8
1979-07-30 06:07:24.560 ,4,0,2.,4.8,0.,4.8,0.,4.8,0.,4.8
1979-07-30 06:07:29.360 ,4,0,0.,4.8,0.,4.8,0.,4.8,0.,4.8
1979-07-30 06:07:34.160 ,4,0,1.,4.8,0.,4.8,0.,4.8,0.,4.8
1979-07-30 06:07:38.960 ,4,0,2.,4.8,0.,4.8,0.,4.8,0.,4.8
1979-07-30 06:07:43.760 ,4,0,1.,4.8,1.,4.8,0.,4.8,0.,4.8
1979-07-30 06:07:48.560 ,4,0,2.,4.8,0.,4.8,0.,4.8,0.,4.8
1979-07-30 06:07:53.360 ,4,0,3.,4.8,0.,4.8,0.,4.8,0.,4.8
1979-07-30 06:07:58.160 ,3,0,6.,4.8,0.,4.8,0.,4.8,0.,4.8
1979-07-30 06:08:02.960 ,3,0,3.,4.8,0.,4.8,0.,4.8,0.,4.8
1979-07-30 06:08:07.760 ,3,0,2.,4.8,0.,4.8,0.,4.8,0.,4.8
1979-07-30 06:08:12.560 ,3,0,2.,4.8,0.,4.8,0.,4.8,0.,4.8
1979-07-30 06:08:17.360 ,3,0,1.,4.8,0.,4.8,0.,4.8,0.,4.8
1979-07-30 06:08:22.160 ,3,0,0.,4.8,0.,4.8,0.,4.8,0.,4.8
1979-07-30 06:08:26.960 ,3,0,1.,4.8,0.,4.8,0.,4.8,0.,4.8
1979-07-30 06:08:31.760 ,3,0,2.,4.8,0.,4.8,0.,4.8,0.,4.8
1979-07-30 06:08:36.560 ,3,0,2.,4.8,0.,4.8,0.,4.8,0.,4.8
1979-07-30 06:08:41.360 ,3,0,0.,4.8,0.,4.8,0.,4.8,0.,4.8
1979-07-30 06:08:46.160 ,2,0,2.,4.8,0.,4.8,0.,4.8,0.,4.8
1979-07-30 06:08:50.960 ,2,0,1.,4.8,0.,4.8,1.,4.8,0.,4.8
1979-07-30 06:08:55.760 ,2,0,1.,4.8,0.,4.8,0.,4.8,0.,4.8
1979-07-30 06:09:00.560 ,2,0,1.,4.8,0.,4.8,0.,4.8,0.,4.8
1979-07-30 06:09:05.360 ,2,0,2.,4.8,0.,4.8,0.,4.8,0.,4.8
1979-07-30 06:09:10.160 ,2,0,5.,4.8,0.,4.8,0.,4.8,0.,4.8
1979-07-30 06:09:14.960 ,2,0,1.,4.8,0.,4.8,0.,4.8,0.,4.8
1979-07-30 06:09:19.760 ,2,0,2.,4.8,0.,4.8,0.,4.8,0.,4.8
1979-07-30 06:09:24.560 ,2,0,0.,4.8,0.,4.8,0.,4.8,0.,4.8
1979-07-30 06:09:29.360 ,2,0,3.,4.8,0.,4.8,0.,4.8,0.,4.8
1979-07-30 06:09:34.160 ,1,0,0.,4.8,0.,4.8,0.,4.8,0.,4.8
1979-07-30 06:09:38.960 ,1,0,1.,4.8,0.,4.8,0.,4.8,0.,4.8
1979-07-30 06:09:43.760 ,1,0,2.,4.8,0.,4.8,0.,4.8,0.,4.8
1979-07-30 06:09:48.560 ,1,0,2.,4.8,0.,4.8,0.,4.8,0.,4.8
1979-07-30 06:09:53.360 ,1,0,4.,4.8,0.,4.8,0.,4.8,0.,4.8
1979-07-30 06:09:58.160 ,1,0,2.,4.8,0.,4.8,0.,4.8,0.,4.8
1979-07-30 06:10:02.960 ,1,0,3.,4.8,0.,4.8,0.,4.8,0.,4.8
1979-07-30 06:10:07.760 ,1,0,4.,4.8,0.,4.8,0.,4.8,0.,4.8
1979-07-30 06:10:12.560 ,1,0,3.,4.8,0.,4.8,0.,4.8,0.,4.8
1979-07-30 06:10:17.360 ,1,0,7.,4.8,0.,4.8,0.,4.8,0.,4.8
1979-07-30 06:10:22.150 ,0,0,5.,4.8,0.,4.8,0.,4.8,0.,4.8
1979-07-30 06:10:26.960 ,0,0,3.,4.8,0.,4.8,0.,4.8,0.,4.8
1979-07-30 06:10:31.760 ,0,0,12.,4.8,0.,4.8,0.,4.8,0.,4.8
1979-07-30 06:10:36.550 ,0,0,6.,4.8,0.,4.8,0.,4.8,0.,4.8
1979-07-30 06:10:41.350 ,0,0,3.,4.8,0.,4.8,0.,4.8,0.,4.8
1979-07-30 06:10:46.150 ,0,0,9.,4.8,0.,4.8,0.,4.8,0.,4.8
1979-07-30 06:10:50.960 ,0,0,11.,4.8,0.,4.8,0.,4.8,0.,4.8
1979-07-30 06:10:55.760 ,0,0,14.,4.8,0.,4.8,1.,4.8,0.,4.8
1979-07-30 06:11:00.550 ,0,0,4.,4.8,0.,4.8,0.,4.8,0.,4.8
1979-07-30 06:11:05.350 ,0,0,4.,4.8,0.,4.8,0.,4.8,0.,4.8
1979-07-30 06:11:10.150 ,0,0,8.,4.8,0.,4.8,0.,4.8,0.,4.8
1979-07-30 06:11:14.960 ,0,0,6.,4.8,1.,4.8,0.,4.8,0.,4.8
1979-07-30 06:11:19.760 ,0,0,8.,4.8,0.,4.8,0.,4.8,0.,4.8
1979-07-30 06:11:24.550 ,0,0,12.,4.8,0.,4.8,0.,4.8,0.,4.8
1979-07-30 06:11:29.350 ,0,0,6.,4.8,0.,4.8,0.,4.8,0.,4.8
1979-07-30 06:11:34.150 ,0,0,11.,4.8,1.,4.8,0.,4.8,0.,4.8
1979-07-30 06:11:38.960 ,0,0,11.,4.8,0.,4.8,0.,4.8,0.,4.8
1979-07-30 06:11:43.760 ,0,0,12.,4.8,0.,4.8,0.,4.8,0.,4.8
1979-07-30 06:11:48.550 ,0,0,6.,4.8,0.,4.8,0.,4.8,0.,4.8
1979-07-30 06:11:53.350 ,0,0,9.,4.8,0.,4.8,0.,4.8,0.,4.8
1979-07-30 06:11:58.150 ,1,0,6.,4.8,1.,4.8,0.,4.8,0.,4.8
1979-07-30 06:12:02.960 ,1,0,8.,4.8,0.,4.8,0.,4.8,0.,4.8
1979-07-30 06:12:07.760 ,1,0,1.,4.8,0.,4.8,0.,4.8,0.,4.8
1979-07-30 06:12:12.550 ,1,0,3.,4.8,0.,4.8,1.,4.8,0.,4.8
1979-07-30 06:12:17.350 ,1,0,3.,4.8,0.,4.8,0.,4.8,0.,4.8
1979-07-30 06:12:22.150 ,1,0,3.,4.8,0.,4.8,1.,4.8,0.,4.8
1979-07-30 06:12:26.960 ,1,0,3.,4.8,0.,4.8,1.,4.8,0.,4.8
1979-07-30 06:12:31.760 ,1,0,1.,4.8,0.,4.8,0.,4.8,0.,4.8
1979-07-30 06:12:36.550 ,1,0,3.,4.8,0.,4.8,0.,4.8,0.,4.8
1979-07-30 06:12:41.350 ,1,0,1.,4.8,0.,4.8,0.,4.8,0.,4.8
1979-07-30 06:12:46.150 ,2,0,4.,4.8,0.,4.8,0.,4.8,0.,4.8
1979-07-30 06:12:50.960 ,2,0,0.,4.8,0.,4.8,0.,4.8,0.,4.8
1979-07-30 06:12:55.760 ,2,0,3.,4.8,0.,4.8,0.,4.8,0.,4.8
1979-07-30 06:13:00.550 ,2,0,3.,4.8,0.,4.8,0.,4.8,0.,4.8
1979-07-30 06:13:05.350 ,2,0,3.,4.8,0.,4.8,1.,4.8,0.,4.8
1979-07-30 06:13:10.150 ,2,0,2.,4.8,0.,4.8,0.,4.8,0.,4.8
1979-07-30 06:13:14.960 ,2,0,1.,4.8,0.,4.8,0.,4.8,0.,4.8
1979-07-30 06:13:19.760 ,2,0,1.,4.8,0.,4.8,0.,4.8,0.,4.8
1979-07-30 06:13:24.550 ,2,0,1.,4.8,0.,4.8,0.,4.8,0.,4.8
1979-07-30 06:13:29.350 ,2,0,2.,4.8,0.,4.8,1.,4.8,0.,4.8
1979-07-30 06:13:34.150 ,3,0,0.,4.8,0.,4.8,0.,4.8,0.,4.8
1979-07-30 06:13:38.960 ,3,0,4.,4.8,0.,4.8,0.,4.8,0.,4.8
1979-07-30 06:13:43.760 ,3,0,3.,4.8,0.,4.8,0.,4.8,0.,4.8
1979-07-30 06:13:48.550 ,3,0,3.,4.8,0.,4.8,0.,4.8,0.,4.8
1979-07-30 06:13:53.350 ,3,0,1.,4.8,0.,4.8,0.,4.8,0.,4.8
1979-07-30 06:13:58.150 ,3,0,3.,4.8,0.,4.8,0.,4.8,0.,4.8
1979-07-30 06:14:02.960 ,3,0,2.,4.8,0.,4.8,0.,4.8,0.,4.8
1979-07-30 06:14:07.760 ,3,0,2.,4.8,0.,4.8,0.,4.8,0.,4.8
1979-07-30 06:14:12.550 ,3,0,1.,4.8,0.,4.8,1.,4.8,0.,4.8
1979-07-30 06:14:17.350 ,3,0,0.,4.8,0.,4.8,0.,4.8,0.,4.8
1979-07-30 06:14:22.150 ,4,0,2.,4.8,0.,4.8,1.,4.8,0.,4.8
1979-07-30 06:14:26.960 ,4,0,0.,4.8,0.,4.8,0.,4.8,0.,4.8
1979-07-30 06:14:31.760 ,4,0,1.,4.8,0.,4.8,0.,4.8,0.,4.8
1979-07-30 06:14:36.550 ,4,0,0.,4.8,0.,4.8,0.,4.8,0.,4.8
1979-07-30 06:14:41.350 ,4,0,1.,4.8,0.,4.8,1.,4.8,0.,4.8
1979-07-30 06:14:46.150 ,4,0,2.,4.8,0.,4.8,1.,4.8,0.,4.8
1979-07-30 06:14:50.960 ,4,0,1.,4.8,0.,4.8,1.,4.8,0.,4.8
1979-07-30 06:14:55.760 ,4,0,2.,4.8,1.,4.8,0.,4.8,0.,4.8
1979-07-30 06:15:00.550 ,4,0,1.,4.8,0.,4.8,0.,4.8,0.,4.8
1979-07-30 06:15:05.350 ,4,0,2.,4.8,0.,4.8,0.,4.8,0.,4.8
1979-07-30 06:15:10.150 ,5,0,3.,4.8,0.,4.8,0.,4.8,0.,4.8
1979-07-30 06:15:14.960 ,5,0,5.,4.8,0.,4.8,0.,4.8,0.,4.8
1979-07-30 06:15:19.760 ,5,0,4.,4.8,0.,4.8,0.,4.8,0.,4.8
1979-07-30 06:15:24.550 ,5,0,1.,4.8,0.,4.8,0.,4.8,0.,4.8
1979-07-30 06:15:29.350 ,5,0,1.,4.8,0.,4.8,0.,4.8,0.,4.8
1979-07-30 06:15:34.150 ,5,0,1.,4.8,0.,4.8,0.,4.8,0.,4.8
1979-07-30 06:15:38.960 ,5,0,0.,4.8,0.,4.8,0.,4.8,0.,4.8
1979-07-30 06:15:43.760 ,5,0,4.,4.8,0.,4.8,1.,4.8,0.,4.8
1979-07-30 06:15:48.550 ,5,0,2.,4.8,0.,4.8,0.,4.8,0.,4.8
1979-07-30 06:15:53.350 ,5,0,2.,4.8,0.,4.8,1.,4.8,0.,4.8
1979-07-30 06:15:58.150 ,6,0,1.,4.8,0.,4.8,1.,4.8,0.,4.8
1979-07-30 06:16:02.960 ,6,0,1.,4.8,0.,4.8,0.,4.8,0.,4.8
1979-07-30 06:16:07.760 ,6,0,4.,4.8,0.,4.8,0.,4.8,0.,4.8
1979-07-30 06:16:12.550 ,6,0,2.,4.8,0.,4.8,0.,4.8,0.,4.8
1979-07-30 06:16:17.350 ,6,0,6.,4.8,0.,4.8,0.,4.8,0.,4.8
1979-07-30 06:16:22.150 ,6,0,2.,4.8,0.,4.8,0.,4.8,0.,4.8
1979-07-30 06:16:26.960 ,6,0,1.,4.8,0.,4.8,0.,4.8,0.,4.8
1979-07-30 06:16:31.760 ,6,0,3.,4.8,0.,4.8,0.,4.8,0.,4.8
1979-07-30 06:16:36.550 ,6,0,3.,4.8,0.,4.8,0.,4.8,0.,4.8
1979-07-30 06:16:41.350 ,6,0,1.,4.8,0.,4.8,1.,4.8,0.,4.8
1979-07-30 06:16:46.150 ,7,0,3.,4.8,0.,4.8,0.,4.8,0.,4.8
1979-07-30 06:16:50.960 ,7,0,3.,4.8,0.,4.8,0.,4.8,0.,4.8
1979-07-30 06:16:55.760 ,7,0,4.,4.8,0.,4.8,0.,4.8,0.,4.8
1979-07-30 06:17:00.550 ,7,0,2.,4.8,0.,4.8,0.,4.8,0.,4.8
1979-07-30 06:17:05.350 ,7,0,2.,4.8,0.,4.8,0.,4.8,0.,4.8
1979-07-30 06:17:10.160 ,7,0,3.,4.8,0.,4.8,0.,4.8,0.,4.8
1979-07-30 06:17:14.960 ,7,0,4.,4.8,0.,4.8,0.,4.8,0.,4.8
1979-07-30 06:17:19.760 ,7,0,5.,4.8,0.,4.8,0.,4.8,0.,4.8
1979-07-30 06:17:24.560 ,7,0,4.,4.8,0.,4.8,0.,4.8,0.,4.8
1979-07-30 06:17:29.360 ,7,0,2.,4.8,0.,4.8,1.,4.8,0.,4.8
1979-07-30 06:17:34.160 ,7,0,0.,4.8,1.,4.8,0.,4.8,0.,4.8
1979-07-30 06:17:38.960 ,7,0,3.,4.8,0.,4.8,0.,4.8,0.,4.8
1979-07-30 06:17:43.760 ,7,0,1.,4.8,0.,4.8,0.,4.8,0.,4.8
1979-07-30 06:17:48.560 ,7,0,2.,4.8,0.,4.8,0.,4.8,0.,4.8
1979-07-30 06:17:53.360 ,7,0,2.,4.8,0.,4.8,0.,4.8,0.,4.8
1979-07-30 06:17:58.160 ,7,0,0.,4.8,0.,4.8,0.,4.8,0.,4.8
1979-07-30 06:18:02.960 ,7,0,1.,4.8,0.,4.8,0.,4.8,0.,4.8
1979-07-30 06:18:07.760 ,7,0,0.,4.8,0.,4.8,0.,4.8,0.,4.8
1979-07-30 06:18:12.560 ,7,0,1.,4.8,0.,4.8,0.,4.8,0.,4.8
1979-07-30 06:18:17.360 ,7,0,3.,4.8,0.,4.8,0.,4.8,0.,4.8
1979-07-30 06:18:22.160 ,6,0,0.,4.8,0.,4.8,0.,4.8,0.,4.8
1979-07-30 06:18:26.960 ,6,0,3.,4.8,0.,4.8,0.,4.8,0.,4.8
1979-07-30 06:18:31.760 ,6,0,2.,4.8,0.,4.8,0.,4.8,0.,4.8
1979-07-30 06:18:36.560 ,6,0,0.,4.8,0.,4.8,0.,4.8,0.,4.8
1979-07-30 06:18:41.360 ,6,0,4.,4.8,0.,4.8,0.,4.8,0.,4.8
1979-07-30 06:18:46.160 ,6,0,0.,4.8,0.,4.8,0.,4.8,0.,4.8
1979-07-30 06:18:50.960 ,6,0,1.,4.8,0.,4.8,0.,4.8,0.,4.8
1979-07-30 06:18:55.760 ,6,0,3.,4.8,0.,4.8,0.,4.8,0.,4.8
1979-07-30 06:19:00.560 ,6,0,1.,4.8,0.,4.8,0.,4.8,0.,4.8
1979-07-30 06:19:05.360 ,6,0,0.,4.8,0.,4.8,0.,4.8,0.,4.8
1979-07-30 06:19:10.160 ,5,0,0.,4.8,0.,4.8,0.,4.8,0.,4.8
1979-07-30 06:19:14.960 ,5,0,3.,4.8,0.,4.8,0.,4.8,0.,4.8
1979-07-30 06:19:19.760 ,5,0,1.,4.8,0.,4.8,0.,4.8,0.,4.8
1979-07-30 06:19:24.560 ,5,0,1.,4.8,0.,4.8,0.,4.8,0.,4.8
1979-07-30 06:19:29.360 ,5,0,4.,4.8,0.,4.8,1.,4.8,0.,4.8
1979-07-30 06:19:34.160 ,5,0,4.,4.8,0.,4.8,0.,4.8,0.,4.8
1979-07-30 06:19:38.960 ,5,0,3.,4.8,0.,4.8,0.,4.8,0.,4.8
1979-07-30 06:19:43.760 ,5,0,0.,4.8,0.,4.8,0.,4.8,0.,4.8
1979-07-30 06:19:48.560 ,5,0,3.,4.8,0.,4.8,0.,4.8,0.,4.8
1979-07-30 06:19:53.360 ,5,0,3.,4.8,0.,4.8,0.,4.8,0.,4.8
1979-07-30 06:19:58.160 ,4,0,2.,4.8,0.,4.8,0.,4.8,0.,4.8
1979-07-30 06:20:02.960 ,4,0,0.,4.8,0.,4.8,1.,4.8,1.,4.8
1979-07-30 06:20:07.760 ,4,0,3.,4.8,0.,4.8,0.,4.8,0.,4.8
1979-07-30 06:20:12.560 ,4,0,3.,4.8,0.,4.8,0.,4.8,0.,4.8
1979-07-30 06:20:17.360 ,4,0,0.,4.8,1.,4.8,0.,4.8,0.,4.8
1979-07-30 06:20:22.160 ,4,0,4.,4.8,0.,4.8,0.,4.8,0.,4.8
1979-07-30 06:20:26.960 ,4,0,4.,4.8,0.,4.8,0.,4.8,0.,4.8
1979-07-30 06:20:31.760 ,4,0,2.,4.8,1.,4.8,0.,4.8,0.,4.8
1979-07-30 06:20:36.560 ,4,0,1.,4.8,0.,4.8,1.,4.8,0.,4.8
1979-07-30 06:20:41.360 ,4,0,0.,4.8,0.,4.8,0.,4.8,0.,4.8
1979-07-30 06:20:46.160 ,3,0,0.,4.8,0.,4.8,0.,4.8,0.,4.8
1979-07-30 06:20:50.960 ,3,0,3.,4.8,0.,4.8,0.,4.8,0.,4.8
1979-07-30 06:20:55.760 ,3,0,1.,4.8,0.,4.8,0.,4.8,0.,4.8
1979-07-30 06:21:00.560 ,3,0,2.,4.8,0.,4.8,0.,4.8,0.,4.8
1979-07-30 06:21:05.360 ,3,0,5.,4.8,0.,4.8,0.,4.8,0.,4.8
1979-07-30 06:21:10.160 ,3,0,0.,4.8,0.,4.8,0.,4.8,0.,4.8
1979-07-30 06:21:14.960 ,3,0,0.,4.8,0.,4.8,0.,4.8,0.,4.8
1979-07-30 06:21:19.760 ,3,0,2.,4.8,0.,4.8,0.,4.8,0.,4.8
1979-07-30 06:21:24.560 ,3,0,1.,4.8,0.,4.8,0.,4.8,0.,4.8
1979-07-30 06:21:29.360 ,3,0,1.,4.8,0.,4.8,0.,4.8,0.,4.8
1979-07-30 06:21:34.160 ,2,0,0.,4.8,0.,4.8,0.,4.8,0.,4.8
1979-07-30 06:21:38.960 ,2,0,1.,4.8,0.,4.8,1.,4.8,0.,4.8
1979-07-30 06:21:43.760 ,2,0,1.,4.8,0.,4.8,0.,4.8,0.,4.8
1979-07-30 06:21:48.560 ,2,0,3.,4.8,0.,4.8,0.,4.8,0.,4.8
1979-07-30 06:21:53.360 ,2,0,2.,4.8,0.,4.8,0.,4.8,0.,4.8
1979-07-30 06:21:58.160 ,2,0,4.,4.8,0.,4.8,0.,4.8,0.,4.8
1979-07-30 06:22:02.960 ,2,0,0.,4.8,0.,4.8,0.,4.8,0.,4.8
1979-07-30 06:22:07.760 ,2,0,1.,4.8,0.,4.8,0.,4.8,0.,4.8
1979-07-30 06:22:12.560 ,2,0,2.,4.8,0.,4.8,0.,4.8,0.,4.8
1979-07-30 06:22:17.360 ,2,0,2.,4.8,0.,4.8,0.,4.8,0.,4.8
1979-07-30 06:22:22.160 ,1,0,2.,4.8,0.,4.8,0.,4.8,0.,4.8
1979-07-30 06:22:26.960 ,1,0,3.,4.8,0.,4.8,0.,4.8,0.,4.8
1979-07-30 06:22:31.760 ,1,0,3.,4.8,0.,4.8,0.,4.8,0.,4.8
1979-07-30 06:22:36.560 ,1,0,2.,4.8,0.,4.8,0.,4.8,0.,4.8
1979-07-30 06:22:41.360 ,1,0,3.,4.8,0.,4.8,0.,4.8,0.,4.8
1979-07-30 06:22:46.160 ,1,0,1.,4.8,0.,4.8,0.,4.8,0.,4.8
1979-07-30 06:22:50.960 ,1,0,4.,4.8,0.,4.8,0.,4.8,0.,4.8
1979-07-30 06:22:55.760 ,1,0,2.,4.8,0.,4.8,0.,4.8,0.,4.8
1979-07-30 06:23:00.560 ,1,0,4.,4.8,0.,4.8,0.,4.8,0.,4.8
1979-07-30 06:23:05.360 ,1,0,0.,4.8,0.,4.8,0.,4.8,0.,4.8
1979-07-30 06:23:10.160 ,0,0,1.,4.8,0.,4.8,0.,4.8,0.,4.8
1979-07-30 06:23:14.960 ,0,0,1.,4.8,0.,4.8,0.,4.8,0.,4.8
1979-07-30 06:23:19.760 ,0,0,2.,4.8,0.,4.8,0.,4.8,0.,4.8
1979-07-30 06:23:24.560 ,0,0,4.,4.8,0.,4.8,0.,4.8,0.,4.8
1979-07-30 06:23:29.360 ,0,0,4.,4.8,0.,4.8,0.,4.8,0.,4.8
1979-07-30 06:23:34.160 ,0,0,3.,4.8,1.,4.8,0.,4.8,0.,4.8
1979-07-30 06:23:38.960 ,0,0,3.,4.8,0.,4.8,0.,4.8,0.,4.8
1979-07-30 06:23:43.760 ,0,0,2.,4.8,0.,4.8,0.,4.8,0.,4.8
1979-07-30 06:23:48.560 ,0,0,2.,4.8,0.,4.8,0.,4.8,0.,4.8
1979-07-30 06:23:53.360 ,0,0,2.,4.8,0.,4.8,0.,4.8,0.,4.8
1979-07-30 06:23:58.160 ,0,0,6.,4.8,0.,4.8,0.,4.8,0.,4.8
1979-07-30 06:24:02.960 ,0,0,1.,4.8,0.,4.8,0.,4.8,0.,4.8
1979-07-30 06:24:07.760 ,0,0,0.,4.8,0.,4.8,0.,4.8,0.,4.8
1979-07-30 06:24:12.560 ,0,0,3.,4.8,0.,4.8,0.,4.8,0.,4.8
1979-07-30 06:24:17.360 ,0,0,3.,4.8,0.,4.8,0.,4.8,0.,4.8
1979-07-30 06:24:22.160 ,0,0,7.,4.8,0.,4.8,0.,4.8,0.,4.8
1979-07-30 06:24:26.960 ,0,0,2.,4.8,0.,4.8,0.,4.8,0.,4.8
1979-07-30 06:24:31.760 ,0,0,10.,4.8,0.,4.8,0.,4.8,0.,4.8
1979-07-30 06:24:36.560 ,0,0,8.,4.8,0.,4.8,0.,4.8,0.,4.8
1979-07-30 06:24:41.360 ,0,0,10.,4.8,0.,4.8,0.,4.8,0.,4.8
1979-07-30 06:24:46.160 ,1,0,4.,4.8,0.,4.8,0.,4.8,0.,4.8
1979-07-30 06:24:50.960 ,1,0,9.,4.8,0.,4.8,0.,4.8,0.,4.8
1979-07-30 06:24:55.760 ,1,0,2.,4.8,0.,4.8,0.,4.8,0.,4.8
1979-07-30 06:25:00.560 ,1,0,0.,4.8,0.,4.8,0.,4.8,0.,4.8
1979-07-30 06:25:05.360 ,1,0,2.,4.8,0.,4.8,0.,4.8,0.,4.8
1979-07-30 06:25:10.160 ,1,0,4.,4.8,0.,4.8,0.,4.8,0.,4.8
1979-07-30 06:25:14.960 ,1,0,2.,4.8,0.,4.8,0.,4.8,0.,4.8
1979-07-30 06:25:19.760 ,1,0,5.,4.8,0.,4.8,0.,4.8,0.,4.8
1979-07-30 06:25:24.560 ,1,0,2.,4.8,0.,4.8,1.,4.8,0.,4.8
1979-07-30 06:25:29.360 ,1,0,2.,4.8,0.,4.8,0.,4.8,0.,4.8
1979-07-30 06:25:34.160 ,2,0,0.,4.8,0.,4.8,1.,4.8,0.,4.8
1979-07-30 06:25:38.960 ,2,0,1.,4.8,0.,4.8,0.,4.8,0.,4.8
1979-07-30 06:25:43.760 ,2,0,2.,4.8,0.,4.8,0.,4.8,0.,4.8
1979-07-30 06:25:48.560 ,2,0,1.,4.8,0.,4.8,0.,4.8,0.,4.8
1979-07-30 06:25:53.360 ,2,0,4.,4.8,0.,4.8,1.,4.8,0.,4.8
1979-07-30 06:25:58.160 ,2,0,3.,4.8,0.,4.8,0.,4.8,0.,4.8
1979-07-30 06:26:02.960 ,2,0,3.,4.8,0.,4.8,0.,4.8,0.,4.8
1979-07-30 06:26:07.760 ,2,0,0.,4.8,0.,4.8,0.,4.8,0.,4.8
1979-07-30 06:26:12.560 ,2,0,2.,4.8,0.,4.8,0.,4.8,0.,4.8
1979-07-30 06:26:17.360 ,2,0,2.,4.8,0.,4.8,0.,4.8,0.,4.8
1979-07-30 06:26:22.160 ,3,0,4.,4.8,0.,4.8,0.,4.8,0.,4.8
1979-07-30 06:26:26.960 ,3,0,1.,4.8,0.,4.8,0.,4.8,0.,4.8
1979-07-30 06:26:31.760 ,3,0,0.,4.8,0.,4.8,0.,4.8,0.,4.8
1979-07-30 06:26:36.560 ,3,0,2.,4.8,0.,4.8,1.,4.8,0.,4.8
1979-07-30 06:26:41.360 ,3,0,3.,4.8,0.,4.8,0.,4.8,0.,4.8
1979-07-30 06:26:46.160 ,3,0,1.,4.8,0.,4.8,0.,4.8,0.,4.8
1979-07-30 06:26:50.960 ,3,0,1.,4.8,0.,4.8,0.,4.8,0.,4.8
1979-07-30 06:26:55.760 ,3,0,2.,4.8,0.,4.8,1.,4.8,0.,4.8
1979-07-30 06:27:00.560 ,3,0,2.,4.8,0.,4.8,0.,4.8,0.,4.8
1979-07-30 06:27:05.360 ,3,0,4.,4.8,0.,4.8,0.,4.8,0.,4.8
1979-07-30 06:27:10.160 ,4,0,3.,4.8,0.,4.8,0.,4.8,0.,4.8
1979-07-30 06:27:14.960 ,4,0,2.,4.8,0.,4.8,0.,4.8,0.,4.8
1979-07-30 06:27:19.760 ,4,0,2.,4.8,0.,4.8,0.,4.8,0.,4.8
1979-07-30 06:27:24.560 ,4,0,3.,4.8,0.,4.8,0.,4.8,0.,4.8
1979-07-30 06:27:29.360 ,4,0,1.,4.8,0.,4.8,0.,4.8,0.,4.8
1979-07-30 06:27:34.160 ,4,0,2.,4.8,0.,4.8,1.,4.8,0.,4.8
1979-07-30 06:27:38.960 ,4,0,3.,4.8,0.,4.8,0.,4.8,0.,4.8
1979-07-30 06:27:43.760 ,4,0,1.,4.8,0.,4.8,0.,4.8,0.,4.8
1979-07-30 06:27:48.560 ,4,0,4.,4.8,0.,4.8,0.,4.8,0.,4.8
1979-07-30 06:27:53.360 ,4,0,2.,4.8,0.,4.8,0.,4.8,0.,4.8
1979-07-30 06:27:58.160 ,5,0,3.,4.8,0.,4.8,0.,4.8,0.,4.8
1979-07-30 06:28:02.960 ,5,0,2.,4.8,0.,4.8,0.,4.8,0.,4.8
1979-07-30 06:28:07.760 ,5,0,3.,4.8,0.,4.8,0.,4.8,0.,4.8
1979-07-30 06:28:12.560 ,5,0,2.,4.8,0.,4.8,0.,4.8,0.,4.8
1979-07-30 06:28:17.360 ,5,0,2.,4.8,0.,4.8,0.,4.8,0.,4.8
1979-07-30 06:28:22.160 ,5,0,0.,4.8,1.,4.8,0.,4.8,0.,4.8
1979-07-30 06:28:26.960 ,5,0,4.,4.8,0.,4.8,0.,4.8,0.,4.8
1979-07-30 06:28:31.760 ,5,0,0.,4.8,0.,4.8,0.,4.8,0.,4.8
1979-07-30 06:28:36.560 ,5,0,3.,4.8,0.,4.8,0.,4.8,0.,4.8
1979-07-30 06:28:41.360 ,5,0,2.,4.8,0.,4.8,0.,4.8,0.,4.8
1979-07-30 06:28:46.160 ,6,0,2.,4.8,0.,4.8,0.,4.8,0.,4.8
1979-07-30 06:28:50.960 ,6,0,0.,4.8,0.,4.8,1.,4.8,0.,4.8
1979-07-30 06:28:55.760 ,6,0,2.,4.8,0.,4.8,0.,4.8,0.,4.8
1979-07-30 06:29:00.560 ,6,0,1.,4.8,0.,4.8,0.,4.8,0.,4.8
1979-07-30 06:29:05.360 ,6,0,0.,4.8,0.,4.8,0.,4.8,0.,4.8
1979-07-30 06:29:10.160 ,6,0,2.,4.8,0.,4.8,1.,4.8,0.,4.8
1979-07-30 06:29:14.960 ,6,0,0.,4.8,0.,4.8,0.,4.8,0.,4.8
1979-07-30 06:29:19.760 ,6,0,1.,4.8,0.,4.8,1.,4.8,0.,4.8
1979-07-30 06:29:24.560 ,6,0,0.,4.8,0.,4.8,0.,4.8,0.,4.8
1979-07-30 06:29:29.360 ,6,0,1.,4.8,0.,4.8,0.,4.8,0.,4.8
1979-07-30 06:29:34.150 ,7,0,1.,4.8,0.,4.8,0.,4.8,0.,4.8
1979-07-30 06:29:38.950 ,7,0,1.,4.8,1.,4.8,0.,4.8,0.,4.8
1979-07-30 06:29:43.750 ,7,0,0.,4.8,0.,4.8,0.,4.8,0.,4.8
1979-07-30 06:29:48.550 ,7,0,1.,4.8,0.,4.8,1.,4.8,0.,4.8
1979-07-30 06:29:53.350 ,7,0,0.,4.8,0.,4.8,0.,4.8,0.,4.8
1979-07-30 06:29:58.150 ,7,0,0.,4.8,0.,4.8,0.,4.8,0.,4.8
1979-07-30 06:30:02.950 ,7,0,1.,4.8,0.,4.8,0.,4.8,0.,4.8
1979-07-30 06:30:07.750 ,7,0,0.,4.8,0.,4.8,0.,4.8,0.,4.8
1979-07-30 06:30:12.550 ,7,0,1.,4.8,0.,4.8,0.,4.8,0.,4.8
1979-07-30 06:30:17.350 ,7,0,1.,4.8,0.,4.8,0.,4.8,0.,4.8
1979-07-30 06:30:22.150 ,7,0,2.,4.8,0.,4.8,0.,4.8,0.,4.8
1979-07-30 06:30:26.950 ,7,0,2.,4.8,0.,4.8,0.,4.8,0.,4.8
1979-07-30 06:30:31.750 ,7,0,0.,4.8,0.,4.8,0.,4.8,0.,4.8
1979-07-30 06:30:36.550 ,7,0,2.,4.8,0.,4.8,1.,4.8,0.,4.8
1979-07-30 06:30:41.350 ,7,0,3.,4.8,0.,4.8,0.,4.8,0.,4.8
1979-07-30 06:30:46.150 ,7,0,0.,4.8,0.,4.8,0.,4.8,0.,4.8
1979-07-30 06:30:50.950 ,7,0,0.,4.8,0.,4.8,0.,4.8,0.,4.8
1979-07-30 06:30:55.750 ,7,0,2.,4.8,0.,4.8,0.,4.8,0.,4.8
1979-07-30 06:31:00.550 ,7,0,0.,4.8,0.,4.8,1.,4.8,0.,4.8
1979-07-30 06:31:05.350 ,7,0,0.,4.8,0.,4.8,0.,4.8,0.,4.8
1979-07-30 06:31:10.150 ,6,0,0.,4.8,0.,4.8,0.,4.8,0.,4.8
1979-07-30 06:31:14.950 ,6,0,1.,4.8,0.,4.8,0.,4.8,0.,4.8
1979-07-30 06:31:19.750 ,6,0,1.,4.8,0.,4.8,0.,4.8,0.,4.8
1979-07-30 06:31:24.550 ,6,0,2.,4.8,0.,4.8,0.,4.8,0.,4.8
1979-07-30 06:31:29.350 ,6,0,3.,4.8,0.,4.8,0.,4.8,0.,4.8
1979-07-30 06:31:34.150 ,6,0,3.,4.8,0.,4.8,0.,4.8,0.,4.8
1979-07-30 06:31:38.950 ,6,0,0.,4.8,0.,4.8,0.,4.8,0.,4.8
1979-07-30 06:31:43.750 ,6,0,1.,4.8,0.,4.8,0.,4.8,0.,4.8
1979-07-30 06:31:48.550 ,6,0,2.,4.8,0.,4.8,0.,4.8,0.,4.8
1979-07-30 06:31:53.350 ,6,0,2.,4.8,0.,4.8,0.,4.8,0.,4.8
1979-07-30 06:31:58.150 ,5,0,0.,4.8,0.,4.8,0.,4.8,0.,4.8
1979-07-30 06:32:02.950 ,5,0,1.,4.8,0.,4.8,0.,4.8,0.,4.8
1979-07-30 06:32:07.750 ,5,0,2.,4.8,0.,4.8,0.,4.8,0.,4.8
1979-07-30 06:32:12.550 ,5,0,2.,4.8,0.,4.8,0.,4.8,0.,4.8
1979-07-30 06:32:17.350 ,5,0,2.,4.8,0.,4.8,0.,4.8,0.,4.8
1979-07-30 06:32:22.150 ,5,0,2.,4.8,0.,4.8,0.,4.8,0.,4.8
1979-07-30 06:32:26.950 ,5,0,3.,4.8,1.,4.8,0.,4.8,0.,4.8
1979-07-30 06:32:31.750 ,5,0,1.,4.8,0.,4.8,0.,4.8,0.,4.8
1979-07-30 06:32:36.550 ,5,0,2.,4.8,0.,4.8,0.,4.8,0.,4.8
1979-07-30 06:32:41.350 ,5,0,1.,4.8,0.,4.8,1.,4.8,0.,4.8
1979-07-30 06:32:46.150 ,4,0,1.,4.8,0.,4.8,0.,4.8,0.,4.8
1979-07-30 06:32:50.950 ,4,0,1.,4.8,0.,4.8,0.,4.8,0.,4.8
1979-07-30 06:32:55.750 ,4,0,1.,4.8,0.,4.8,0.,4.8,0.,4.8
1979-07-30 06:33:00.550 ,4,0,2.,4.8,0.,4.8,0.,4.8,0.,4.8
1979-07-30 06:33:05.350 ,4,0,1.,4.8,0.,4.8,0.,4.8,0.,4.8
1979-07-30 06:33:10.150 ,4,0,0.,4.8,0.,4.8,0.,4.8,0.,4.8
1979-07-30 06:33:14.950 ,4,0,0.,4.8,0.,4.8,0.,4.8,0.,4.8